COSMOS 2251 DEB, 35989

Orbit data source: Space-Track

COSMOS 2251 DEB, 35989 is space debris in LEO originally from a launch on Wed, 16 Jun 1993 UTC launched from the Plesetsk Missile And Space Complex (PKMTR). The debris from Iridium 33, an American commercial communications satellite, has been tracked extensively since its accidental collision with the defunct Russian satellite Cosmos 2251 in 2009. This event, occurring at high speed in low Earth orbit (LEO), generated thousands of pieces of space debris, significantly increasing the risk of further collisions. The Iridium 33 debris cloud has impacted space traffic management and orbital debris mitigation strategies, making it a subject of ongoing study in space situational awareness.

Loading next visibility...
Identifier
35989, 1993-036AWF
Orbit
LEO
Country
Flag of CISCIS
Related business
Manufacturer
Unknown
Mission
Spacecraft
Bus & Motor
Unknown
Mass
Unknown
Launch date (UTC)
1993-06-16 (33 years ago)
Launch vehicle
Unknown
Launch site
Plesetsk Missile And Space Complex (PKMTR)
Object type
Payload
Rocket body
Debris
Shape & HBR
Unknown shape, 0.1 m
Radar Cross Section
Small (<0.1 m²)

Expand to show TLE details & history
Last TLE update: 4 days ago

TLE from 4 days ago
0 COSMOS 2251 DEB
1 35989U 93036AWF 26259.40091234  .00000274  00000-0  10026-3 0  9997
2 35989  74.0366 133.1176 0022013 152.7887 207.4425 14.37352523911684
Epoch: 2026-09-16T09:37Z
TLE epoch observation values (Epoch: 2026-09-16T09:37:18.826Z)
Latitude
-0.00004°
Longitude
-6.56389°
Altitude
783.841 km
Speed
7.455 km/s
True Right ascension
08h 52m 28s
True Declination
0° 00' 00"
Sunlit
Object was in daylight at epoch
Visualization orbit readout
Latitude
Unknown
Longitude
Unknown
Altitude
Unknown
Speed
Unknown
Apparent Right ascension
Unknown
Apparent Declination
Unknown
Sunlit
N/A
Visualization observer readout
Local Sidereal Time
11:36:40
Azimuth
Unknown
Elevation
Unknown
Doppler factor
Unknown
Orbital elements
Apogee altitude
780.606 km
Perigee altitude
749.158 km
Semi-major axis
7,143.019 km
Eccentricity
0.0022
Inclination
74.0366°
RAAN
133.1176°
Arg. of periapsis
152.7887°
True anomaly
207.32653°
Mean anomaly
207.4425°
Eccentric anomaly
207.38449°
Mean motion
3.59518 °/min
Orbital period
100.13 mins
BSTAR
0.00010026
Loading maneuver chart data...
Computing Atmospheric mass density...

Documentation

Showing up to 5 results
|